Погода в Быргынде

Россия / Удмуртская Республика     55°54′09″N   53°25′02″E
В апреле 2022 года жителям России запретили посещать сайт meteo.paraplan.net по решению Генеральной прокуратуры. Аудитория сайта уменьшилась в 10 раз. Владельцы сайта не видят смысла в поддержке погодного сервера в таких условиях. Сайт будет закрыт в октябре.
темп.,
°C
ветер,
м/с
пор.,
м/с
влажн.,
%
обл.,
%
осадки,
мм/ч
давл.,
гПа
погр.,
м
3 октября, пн
пн301:00+12ю61367100 0.4 1017489
04:00+12ю61369100 1.4 1018489
07:00+11ю51274100 0.6 1018438
10:00+12ю5126178 0.7 1019517
13:00+17ю7114448 0.0 1020865
16:00+17ю61043100 0.0 1021869
19:00+12ююв4115484 0.0 1023234
22:00+11ююв41255100 0.0 1024326
4 октября, вт
вт401:00+9ююв395756 0.0 1025161
04:00+8ююв411587 0.0 1026208
07:00+7ююв311568 0.0 1027214
10:00+12ююв61138100 0.0 1028428
13:00+14ю5932100 0.0 1028646
16:00+13ююв5936100 0.0 1028488
19:00+9ююв3104563 0.0 1029188
22:00+8ююв31047100 0.0 1029214
5 октября, ср
ср501:00+8ююв31145100 0.0 1029264
04:00+8ю51342100 0.0 1029368
07:00+7ююз31073100 0.2 1029461
10:00+8юв41068100 0.8 1028355
13:00+10ююв41144100 0.0 1027508
16:00+10ююв51041100 0.0 1025361
19:00+10ю61440100 0.0 1025525
22:00+10ю61242100 0.0 1024579
6 октября, чт
чт601:00+7ю41071100 1.2 1022595
04:00+7ююв41095100 4.5 1021537
07:00+8ю51085100 1.3 1019555
10:00+8ююв4880100 1.4 1018378
13:00+7ююв4791100 1.5 1017376
16:00+8ююв3691100 1.6 1016368
19:00+7ю378893 0.1 1015242
22:00+7ююз2397100 4.1 1015114
7 октября, пт
пт701:00+7зсз2585100 0.2 1014155
04:00+6з378680 0.2 1014297
07:00+4зюз37925 0.0 1014171
10:00+7зюз467698 0.0 1013480
13:00+10юз695998 0.1 10121528
16:00+7ююз41088100 0.8 1011749
19:00+7зюз4994100 0.1 1011521
22:00+8зюз51189100 0.2 1010465